Location: Home
(42.5358°N, 72.7383°W)
Time: 11:58:41
(UTC-05:00)

Courier 1B - Pass Details

Date: 01 December 2021
Orbit: 962 x 1209 km, 28.3° (Epoch: 23 January)

Event Time Altitude Azimuth Distance (km) Brightness Sun altitude
Rises 18:29:04 0° 239° (WSW) 3,933 11.8 -23.4°
Reaches altitude 10° 18:32:28 10° 226° (SW) 2,930 10.7 -24.0°
Maximum altitude 18:37:57 24° 176° (S) 2,018 9.1 -25.0°
Enters shadow 18:40:08 21° 150° (SSE) 2,159 9.1 -25.4°
